Location: Amarillo Post Office Jordan Station
(35.1907°N, 101.9342°W)
Time: 13:47:56
(UTC+00:00)

USA 306 - Pass Details

Date: 24 January 2021
Orbit: 569 x 574 km, 54.0° (Epoch: 02 March)

Event Time Altitude Azimuth Distance (km) Brightness Sun altitude
Exits shadow 12:56:07 17° 282° (WNW) 1,475 4.3 -11.6°
Maximum altitude 12:58:19 25° 325° (NW) 1,158 4.0 -11.2°
Drops below altitude 10° 13:01:53 10° 22° (NNE) 1,870 5.6 -10.5°
Sets 13:04:27 0° 35° (NE) 2,770 6.7 -10.0°
